Tracking 17264 objects as of 2-September-2015
HD Live streaming from Space Station
Soyuz TMA-18M launch Live coverage:
Soyuz TMA-18M launch from Baikonur

COSMOS 2418 (GLONASS)

Track COSMOS 2418 (GLONASS) now!
COSMOS 2418 (GLONASS) is classified as:


NORAD ID: 28916
Int'l Code: 2005-050B
Perigee: 19,099.3 km
Apogee: 19,174.4 km
Inclination: 65.2 °
Period: 675.7 minutes
Semi major axis: 25507 km
RCS: 3.9905 m2 (large)
Launch date: December 25, 2005
Source: Commonwealth of Independent States (former USSR) (CIS)
SV:
Your satellite tracking list
Your tracking list is empty





NASA's NSSDC Master Catalog

Two Line Element Set (TLE):
1 28916U 05050B   15243.49273119  .00000025  00000-0  00000+0 0  9993
2 28916 065.2143 088.0602 0014735 331.9041 033.3964 02.13104127 75364

Source of the keplerian elements: AFSPC

N2YO: 301